| time (UTC) | temp F | wind direction | speed knots | gust knots | rain 1hr in | rain 24hr in | rain mn in | humidity % | barometer mb |
| 20260506004704 | 80 | 300 | 0.9 | 1.7 | 0.00 | 0.00 | 0.00 | 83 | 1005.4 |
| 20260506004204 | 80 | 24 | 0.9 | 2.6 | 0.00 | 0.00 | 0.00 | 82 | 1005.3 |
| 20260506003704 | 80 | 310 | 0.9 | 4.3 | 0.00 | 0.00 | 0.00 | 81 | 1005.2 |
| 20260506003204 | 81 | 269 | 0.9 | 4.3 | 0.00 | 0.00 | 0.00 | 81 | 1005.2 |
| 20260506001204 | 81 | 293 | 0.9 | 2.6 | 0.00 | 0.00 | 0.00 | 80 | 1005.2 |
| 20260506000705 | 81 | 276 | 0.9 | 1.7 | 0.00 | 0.00 | 0.00 | 80 | 1005.2 |
| 20260505235704 | 82 | 247 | 0.9 | 2.6 | 0.00 | 0.00 | 0.00 | 78 | 1005.1 |
| 20260505235203 | 82 | 258 | 0.9 | 1.7 | 0.00 | 0.00 | 0.00 | 78 | 1005.1 |
| 20260505234704 | 82 | 319 | 0.9 | 1.7 | 0.00 | 0.00 | 0.00 | 78 | 1005.2 |
| 20260505234204 | 82 | 219 | 0.9 | 2.6 | 0.00 | 0.00 | 0.00 | 78 | 1005.2 |
| 20260505233703 | 82 | 307 | 0.9 | 2.6 | 0.00 | 0.00 | 0.00 | 78 | 1005.2 |
| 20260505233204 | 82 | 271 | 0.9 | 5.2 | 0.00 | 0.00 | 0.00 | 78 | 1005.2 |
| 20260505232704 | 82 | 304 | 0.9 | 2.6 | 0.00 | 0.00 | 0.00 | 78 | 1005.1 |
| 20260505232204 | 82 | 305 | 0.9 | 2.6 | 0.00 | 0.00 | 0.00 | 78 | 1005.1 |
| 20260505231704 | 82 | 291 | 0.9 | 2.6 | 0.00 | 0.00 | 0.00 | 78 | 1005.3 |
| 20260505230704 | 82 | 351 | 0.9 | 2.6 | 0.00 | 0.00 | 0.00 | 78 | 1005.2 |
| 20260505230204 | 82 | 271 | 0.9 | 4.3 | 0.00 | 0.00 | 0.00 | 78 | 1005.2 |
| 20260505225204 | 82 | 320 | 0.9 | 1.7 | 0.00 | 0.00 | 0.00 | 78 | 1005.2 |
| 20260505224704 | 82 | 274 | 0.9 | 1.7 | 0.00 | 0.00 | 0.00 | 78 | 1005.2 |
| 20260505223704 | 83 | 279 | 0.9 | 4.3 | 0.00 | 0.00 | 0.00 | 77 | 1005.3 |
| 20260505222704 | 83 | 302 | 0.9 | 1.7 | 0.00 | 0.00 | 0.00 | 77 | 1005.3 |
| 20260505222204 | 83 | 257 | 0.9 | 4.3 | 0.00 | 0.00 | 0.00 | 78 | 1005.3 |
| 20260505221704 | 83 | 322 | 0.9 | 2.6 | 0.00 | 0.00 | 0.00 | 78 | 1005.3 |
| 20260505221206 | 83 | 284 | 0.9 | 1.7 | 0.00 | 0.00 | 0.00 | 78 | 1005.4 |
| 20260505220204 | 83 | 267 | 0.9 | 2.6 | 0.00 | 0.00 | 0.00 | 77 | 1005.5 |
| 20260505215706 | 83 | 283 | 0.9 | 2.6 | 0.00 | 0.00 | 0.00 | 77 | 1005.5 |
| 20260505215203 | 83 | 261 | 0.9 | 2.6 | 0.00 | 0.00 | 0.00 | 77 | 1005.5 |
| 20260505214704 | 83 | 13 | 0.9 | 2.6 | 0.00 | 0.00 | 0.00 | 77 | 1005.6 |
| 20260505214205 | 83 | 266 | 0.9 | 2.6 | 0.00 | 0.00 | 0.00 | 77 | 1005.6 |
| 20260505213704 | 83 | 308 | 0.9 | 2.6 | 0.00 | 0.00 | 0.00 | 77 | 1005.6 |
| 20260505211704 | 84 | 302 | 0.9 | 4.3 | 0.00 | 0.00 | 0.00 | 76 | 1005.8 |
| 20260505211204 | 84 | 341 | 0.9 | 2.6 | 0.00 | 0.00 | 0.00 | 77 | 1005.9 |
| 20260505210704 | 84 | 313 | 0.9 | 2.6 | 0.00 | 0.00 | 0.00 | 77 | 1005.8 |
| 20260505205705 | 84 | 281 | 0.9 | 6.1 | 0.00 | 0.00 | 0.00 | 76 | 1006.1 |
| 20260505205203 | 84 | 290 | 0.9 | 4.3 | 0.00 | 0.00 | 0.00 | 77 | 1006.0 |
| 20260505204203 | 85 | 283 | 0.9 | 2.6 | 0.00 | 0.00 | 0.00 | 75 | 1006.1 |
| 20260505203704 | 84 | 298 | 0.9 | 2.6 | 0.00 | 0.00 | 0.00 | 76 | 1006.4 |
| 20260505203204 | 84 | 281 | 0.9 | 1.7 | 0.00 | 0.00 | 0.00 | 77 | 1006.3 |
| 20260505202704 | 84 | 76 | 0.9 | 4.3 | 0.00 | 0.00 | 0.00 | 77 | 1006.5 |
| 20260505202205 | 84 | 308 | 0.9 | 2.6 | 0.00 | 0.00 | 0.00 | 77 | 1006.6 |
| 20260505201703 | 84 | 205 | 0.9 | 1.7 | 0.00 | 0.00 | 0.00 | 78 | 1006.7 |
| 20260505195704 | 83 | 294 | 0.9 | 1.7 | 0.00 | 0.00 | 0.00 | 78 | 1006.8 |
| 20260505195204 | 83 | 279 | 0.9 | 1.7 | 0.00 | 0.00 | 0.00 | 77 | 1006.8 |
| 20260505194704 | 84 | 273 | 1.7 | 4.3 | 0.00 | 0.00 | 0.00 | 77 | 1006.8 |
| 20260505194204 | 84 | 324 | 0.9 | 4.3 | 0.00 | 0.00 | 0.00 | 76 | 1006.9 |
| 20260505193704 | 85 | 318 | 0.9 | 2.6 | 0.00 | 0.00 | 0.00 | 75 | 1006.9 |
| 20260505192204 | 84 | 308 | 0.9 | 2.6 | 0.00 | 0.00 | 0.00 | 76 | 1007.1 |
| 20260505191706 | 84 | 298 | 0.9 | 4.3 | 0.00 | 0.00 | 0.00 | 77 | 1007.0 |
| 20260505191204 | 84 | 226 | 0.9 | 2.6 | 0.00 | 0.00 | 0.00 | 77 | 1007.1 |
| 20260505190703 | 83 | 287 | 0.9 | 1.7 | 0.00 | 0.00 | 0.00 | 77 | 1007.1 |
| 20260505190204 | 83 | 342 | 0.9 | 1.7 | 0.00 | 0.00 | 0.00 | 78 | 1007.2 |
| 20260505185704 | 82 | 244 | 0.9 | 4.3 | 0.00 | 0.00 | 0.00 | 79 | 1007.2 |
| 20260505184704 | 82 | 137 | 0.9 | 2.6 | 0.00 | 0.00 | 0.00 | 79 | 1007.4 |
| 20260505184204 | 82 | 79 | 0.0 | 1.7 | 0.00 | 0.00 | 0.00 | 79 | 1007.3 |
| 20260505183703 | 82 | 304 | 0.9 | 2.6 | 0.00 | 0.00 | 0.00 | 80 | 1007.3 |
| 20260505183204 | 82 | 316 | 0.9 | 4.3 | 0.00 | 0.00 | 0.00 | 79 | 1007.3 |
| 20260505182704 | 82 | 269 | 0.9 | 2.6 | 0.00 | 0.00 | 0.00 | 79 | 1007.4 |
| 20260505182204 | 82 | 262 | 0.9 | 2.6 | 0.00 | 0.00 | 0.00 | 78 | 1007.4 |
| 20260505181704 | 82 | 282 | 0.0 | 1.7 | 0.00 | 0.00 | 0.00 | 79 | 1007.4 |
| 20260505180704 | 82 | 178 | 0.0 | 2.6 | 0.00 | 0.00 | 0.00 | 81 | 1007.6 |
| 20260505180204 | 82 | 297 | 0.9 | 2.6 | 0.00 | 0.00 | 0.00 | 80 | 1007.6 |
| 20260505175704 | 82 | 287 | 0.9 | 1.7 | 0.00 | 0.00 | 0.00 | 81 | 1007.7 |
| 20260505175204 | 81 | 293 | 0.9 | 1.7 | 0.00 | 0.00 | 0.00 | 81 | 1007.6 |
| 20260505174704 | 81 | 188 | 0.9 | 1.7 | 0.00 | 0.00 | 0.00 | 82 | 1007.7 |
| 20260505174204 | 81 | 289 | 0.9 | 1.7 | 0.00 | 0.00 | 0.00 | 82 | 1007.7 |
| 20260505173205 | 81 | 212 | 0.9 | 0.9 | 0.00 | 0.00 | 0.00 | 82 | 1007.9 |
| 20260505172704 | 80 | 274 | 0.9 | 0.9 | 0.00 | 0.00 | 0.00 | 82 | 1007.9 |
| 20260505172205 | 80 | 285 | 0.9 | 2.6 | 0.00 | 0.00 | 0.00 | 83 | 1007.8 |
| 20260505171703 | 80 | 261 | 0.9 | 4.3 | 0.00 | 0.00 | 0.00 | 83 | 1007.8 |
| 20260505171204 | 80 | 79 | 0.9 | 2.6 | 0.00 | 0.00 | 0.00 | 82 | 1007.9 |
| 20260505170705 | 80 | 281 | 0.9 | 1.7 | 0.00 | 0.00 | 0.00 | 81 | 1008.0 |
| 20260505170204 | 80 | 300 | 0.0 | 1.7 | 0.00 | 0.00 | 0.00 | 82 | 1008.0 |
| 20260505165704 | 80 | 312 | 0.0 | 0.9 | 0.00 | 0.00 | 0.00 | 82 | 1008.0 |
| 20260505165204 | 80 | 280 | 0.9 | 1.7 | 0.00 | 0.00 | 0.00 | 82 | 1008.1 |
| 20260505164704 | 80 | 333 | 0.9 | 1.7 | 0.00 | 0.00 | 0.00 | 82 | 1008.1 |
| 20260505164204 | 80 | 272 | 0.0 | 2.6 | 0.00 | 0.00 | 0.00 | 82 | 1008.0 |
| 20260505163204 | 80 | 280 | 0.9 | 2.6 | 0.00 | 0.00 | 0.00 | 83 | 1008.0 |
| 20260505162704 | 80 | 273 | 0.0 | 1.7 | 0.00 | 0.00 | 0.00 | 83 | 1007.9 |
| 20260505162204 | 79 | 312 | 0.0 | 1.7 | 0.00 | 0.00 | 0.00 | 83 | 1007.9 |
| 20260505161706 | 79 | 284 | 0.9 | 2.6 | 0.00 | 0.00 | 0.00 | 83 | 1007.9 |
| 20260505161204 | 79 | 274 | 0.9 | 1.7 | 0.00 | 0.00 | 0.00 | 83 | 1007.8 |
| 20260505160704 | 79 | 281 | 0.9 | 2.6 | 0.00 | 0.00 | 0.00 | 83 | 1007.8 |
| 20260505160204 | 79 | 254 | 0.9 | 1.7 | 0.00 | 0.00 | 0.00 | 83 | 1007.8 |
| 20260505153204 | 79 | 340 | 0.9 | 1.7 | 0.00 | 0.00 | 0.00 | 83 | 1007.6 |
| 20260505152204 | 79 | 284 | 0.9 | 2.6 | 0.00 | 0.00 | 0.00 | 84 | 1007.6 |
| 20260505151204 | 79 | 245 | 0.9 | 2.6 | 0.00 | 0.00 | 0.00 | 83 | 1007.6 |
| 20260505150705 | 79 | 322 | 0.9 | 2.6 | 0.00 | 0.00 | 0.00 | 83 | 1007.6 |
| 20260505150204 | 79 | 300 | 0.9 | 2.6 | 0.00 | 0.00 | 0.00 | 83 | 1007.5 |
| 20260505140204 | 76 | 248 | 0.0 | 1.7 | 0.00 | 0.00 | 0.00 | 87 | 1007.7 |
| 20260505130204 | 75 | 297 | 0.0 | 2.6 | 0.00 | 0.00 | 0.00 | 89 | 1007.4 |
| 20260505124704 | 74 | 284 | 0.9 | 1.7 | 0.00 | 0.00 | 0.00 | 90 | 1007.3 |
| 20260505124204 | 74 | 286 | 0.0 | 1.7 | 0.00 | 0.00 | 0.00 | 91 | 1007.3 |
| 20260505123705 | 74 | 292 | 0.9 | 1.7 | 0.00 | 0.00 | 0.00 | 91 | 1007.3 |
| 20260505123204 | 74 | 261 | 0.0 | 1.7 | 0.00 | 0.00 | 0.00 | 91 | 1007.3 |
| 20260505122704 | 74 | 273 | 0.0 | 1.7 | 0.00 | 0.00 | 0.00 | 91 | 1007.2 |
| 20260505122203 | 74 | 319 | 0.9 | 1.7 | 0.00 | 0.00 | 0.00 | 90 | 1007.0 |
| 20260505121704 | 74 | 266 | 0.0 | 1.7 | 0.00 | 0.00 | 0.00 | 90 | 1006.8 |
| 20260505121204 | 74 | 271 | 0.0 | 1.7 | 0.00 | 0.00 | 0.00 | 90 | 1006.8 |
| 20260505120704 | 74 | 338 | 0.9 | 2.6 | 0.00 | 0.00 | 0.00 | 90 | 1006.7 |
| 20260505120204 | 74 | 281 | 0.9 | 1.7 | 0.00 | 0.00 | 0.00 | 90 | 1006.8 |
| 20260505115704 | 73 | 281 | 0.9 | 1.7 | 0.00 | 0.00 | 0.00 | 90 | 1007.0 |
| 20260505115205 | 73 | 268 | 0.0 | 1.7 | 0.00 | 0.00 | 0.00 | 90 | 1007.1 |
| 20260505114203 | 73 | 289 | 0.0 | 0.9 | 0.00 | 0.00 | 0.00 | 91 | 1007.1 |
| 20260505113704 | 73 | 309 | 0.0 | 1.7 | 0.00 | 0.00 | 0.00 | 91 | 1007.1 |
| 20260505113203 | 73 | 278 | 0.0 | 1.7 | 0.00 | 0.00 | 0.00 | 91 | 1006.9 |
| 20260505112704 | 73 | 274 | 0.0 | 1.7 | 0.00 | 0.00 | 0.00 | 90 | 1006.9 |
| 20260505112204 | 73 | 264 | 0.9 | 1.7 | 0.00 | 0.00 | 0.00 | 90 | 1006.9 |
| 20260505111704 | 73 | 38 | 0.9 | 1.7 | 0.00 | 0.00 | 0.00 | 90 | 1006.9 |
| 20260505111204 | 73 | 254 | 0.9 | 1.7 | 0.00 | 0.00 | 0.00 | 90 | 1006.8 |
| 20260505110704 | 73 | 261 | 0.9 | 1.7 | 0.00 | 0.00 | 0.00 | 90 | 1006.8 |
| 20260505110204 | 73 | 308 | 0.9 | 1.7 | 0.00 | 0.00 | 0.00 | 90 | 1006.9 |
| 20260505102204 | 73 | 21 | 0.9 | 1.7 | 0.00 | 0.00 | 0.00 | 90 | 1006.9 |
| 20260505101704 | 73 | 286 | 0.0 | 1.7 | 0.00 | 0.00 | 0.00 | 90 | 1006.9 |
| 20260505101204 | 73 | 255 | 0.9 | 1.7 | 0.00 | 0.00 | 0.00 | 90 | 1007.1 |
| 20260505100704 | 73 | 275 | 0.0 | 1.7 | 0.00 | 0.00 | 0.00 | 90 | 1007.1 |
| 20260505100206 | 73 | 266 | 0.9 | 1.7 | 0.00 | 0.00 | 0.00 | 90 | 1007.1 |
| 20260505095704 | 73 | 279 | 0.9 | 2.6 | 0.00 | 0.00 | 0.00 | 90 | 1006.9 |
| 20260505095204 | 72 | 220 | 0.0 | 2.6 | 0.00 | 0.00 | 0.00 | 90 | 1006.8 |
| 20260505094704 | 72 | 292 | 0.0 | 1.7 | 0.00 | 0.00 | 0.00 | 90 | 1006.9 |
| 20260505094204 | 72 | 266 | 0.9 | 1.7 | 0.00 | 0.00 | 0.00 | 90 | 1007.0 |
| 20260505093704 | 72 | 295 | 0.0 | 1.7 | 0.00 | 0.00 | 0.00 | 90 | 1006.9 |
| 20260505093204 | 72 | 283 | 0.0 | 2.6 | 0.00 | 0.00 | 0.00 | 90 | 1007.0 |
| 20260505092704 | 72 | 280 | 0.9 | 1.7 | 0.00 | 0.00 | 0.00 | 90 | 1007.1 |
| 20260505092204 | 72 | 308 | 0.9 | 1.7 | 0.00 | 0.00 | 0.00 | 89 | 1007.2 |
| 20260505091704 | 72 | 283 | 0.0 | 1.7 | 0.00 | 0.00 | 0.00 | 89 | 1007.2 |
| 20260505091204 | 72 | 265 | 0.9 | 2.6 | 0.00 | 0.00 | 0.00 | 89 | 1007.3 |
| 20260505090703 | 72 | 280 | 0.9 | 0.9 | 0.00 | 0.00 | 0.00 | 90 | 1007.2 |
| 20260505085204 | 72 | 306 | 0.0 | 1.7 | 0.00 | 0.00 | 0.00 | 90 | 1007.3 |
| 20260505084704 | 72 | 280 | 0.0 | 1.7 | 0.00 | 0.00 | 0.00 | 90 | 1007.2 |
| 20260505084203 | 71 | 306 | 0.0 | 1.7 | 0.00 | 0.00 | 0.00 | 90 | 1007.3 |
| 20260505083204 | 71 | 271 | 0.0 | 0.9 | 0.00 | 0.00 | 0.00 | 90 | 1007.2 |
| 20260505082704 | 71 | 290 | 0.0 | 1.7 | 0.00 | 0.00 | 0.00 | 90 | 1007.4 |
| 20260505082204 | 71 | 253 | 0.0 | 1.7 | 0.00 | 0.00 | 0.00 | 90 | 1007.4 |
| 20260505081704 | 71 | 253 | 0.9 | 0.9 | 0.00 | 0.00 | 0.00 | 89 | 1007.6 |
| 20260505081204 | 71 | 295 | 0.9 | 4.3 | 0.00 | 0.00 | 0.00 | 89 | 1007.5 |
| 20260505080704 | 71 | 252 | 0.0 | 4.3 | 0.00 | 0.00 | 0.00 | 89 | 1007.5 |
| 20260505080204 | 71 | 258 | 0.9 | 1.7 | 0.00 | 0.00 | 0.00 | 89 | 1007.5 |
| 20260505075704 | 71 | 207 | 0.0 | 1.7 | 0.00 | 0.00 | 0.00 | 89 | 1007.6 |
| 20260505075204 | 71 | 281 | 0.0 | 0.9 | 0.00 | 0.00 | 0.00 | 89 | 1007.5 |
| 20260505074705 | 71 | 253 | 0.0 | 0.9 | 0.00 | 0.00 | 0.00 | 89 | 1007.6 |
| 20260505073704 | 71 | 296 | 0.9 | 1.7 | 0.00 | 0.00 | 0.00 | 89 | 1007.7 |
| 20260505073204 | 71 | 268 | 0.9 | 1.7 | 0.00 | 0.00 | 0.00 | 89 | 1007.7 |
| 20260505072704 | 71 | 289 | 0.9 | 1.7 | 0.00 | 0.00 | 0.00 | 89 | 1007.8 |
| 20260505072204 | 71 | 321 | 0.9 | 1.7 | 0.00 | 0.00 | 0.00 | 88 | 1007.8 |
| 20260505071706 | 71 | 268 | 0.9 | 1.7 | 0.00 | 0.00 | 0.00 | 88 | 1007.8 |
| 20260505071204 | 71 | 354 | 0.9 | 1.7 | 0.00 | 0.00 | 0.00 | 88 | 1007.8 |
| 20260505070704 | 71 | 9 | 0.9 | 1.7 | 0.00 | 0.00 | 0.00 | 88 | 1007.9 |
| 20260505070204 | 71 | 5 | 0.0 | 1.7 | 0.00 | 0.00 | 0.00 | 88 | 1007.9 |
| 20260505065704 | 71 | 317 | 0.9 | 1.7 | 0.00 | 0.00 | 0.00 | 88 | 1007.9 |
| 20260505065205 | 71 | 298 | 0.0 | 1.7 | 0.00 | 0.00 | 0.00 | 88 | 1008.0 |
| 20260505064704 | 71 | 276 | 0.0 | 1.7 | 0.00 | 0.00 | 0.00 | 88 | 1008.2 |
| 20260505064203 | 71 | 261 | 0.9 | 1.7 | 0.00 | 0.00 | 0.00 | 87 | 1008.2 |
| 20260505063704 | 71 | 247 | 0.9 | 2.6 | 0.00 | 0.00 | 0.00 | 87 | 1008.3 |
| 20260505063204 | 71 | 325 | 0.0 | 1.7 | 0.00 | 0.00 | 0.00 | 87 | 1008.5 |
| 20260505062704 | 71 | 302 | 0.0 | 0.9 | 0.00 | 0.00 | 0.00 | 87 | 1008.5 |
| 20260505062204 | 71 | 262 | 0.9 | 2.6 | 0.00 | 0.00 | 0.00 | 87 | 1008.6 |
| 20260505061204 | 71 | 249 | 0.0 | 0.9 | 0.00 | 0.00 | 0.00 | 87 | 1008.7 |
| 20260505060704 | 71 | 272 | 0.9 | 1.7 | 0.00 | 0.00 | 0.00 | 86 | 1008.7 |
| 20260505060204 | 71 | 332 | 0.9 | 1.7 | 0.00 | 0.00 | 0.00 | 86 | 1008.7 |
| 20260505055204 | 71 | 281 | 0.9 | 1.7 | 0.00 | 0.00 | 0.00 | 86 | 1008.6 |
| 20260505054204 | 71 | 304 | 0.9 | 1.7 | 0.00 | 0.00 | 0.00 | 86 | 1008.8 |
| 20260505053704 | 71 | 290 | 0.0 | 1.7 | 0.00 | 0.00 | 0.00 | 86 | 1008.9 |
| 20260505053204 | 71 | 282 | 0.9 | 1.7 | 0.00 | 0.00 | 0.00 | 86 | 1009.0 |
| 20260505052705 | 71 | 259 | 0.9 | 1.7 | 0.00 | 0.00 | 0.00 | 86 | 1008.9 |
| 20260505052205 | 71 | 297 | 0.9 | 0.9 | 0.00 | 0.00 | 0.00 | 85 | 1009.0 |
| 20260505051704 | 71 | 260 | 0.9 | 2.6 | 0.00 | 0.00 | 0.00 | 85 | 1008.9 |
| 20260505051204 | 71 | 314 | 0.9 | 4.3 | 0.00 | 0.00 | 0.00 | 85 | 1008.9 |
| 20260505050704 | 71 | 276 | 0.9 | 4.3 | 0.00 | 0.00 | 0.00 | 85 | 1008.9 |
| 20260505050204 | 71 | 290 | 0.9 | 1.7 | 0.00 | 0.00 | 0.00 | 85 | 1009.0 |
| 20260505041704 | 72 | 293 | 0.0 | 2.6 | 0.00 | 0.00 | 0.00 | 83 | 1009.1 |
| 20260505040704 | 72 | 298 | 0.0 | 1.7 | 0.00 | 0.00 | 0.00 | 82 | 1009.4 |
| 20260505040203 | 72 | 293 | 0.9 | 2.6 | 0.00 | 0.00 | 0.00 | 82 | 1009.3 |
| 20260505035704 | 72 | 294 | 0.9 | 1.7 | 0.00 | 0.00 | 0.00 | 82 | 1009.2 |
| 20260505035204 | 72 | 250 | 0.9 | 1.7 | 0.00 | 0.00 | 0.00 | 81 | 1009.4 |
| 20260505034703 | 73 | 292 | 0.9 | 1.7 | 0.00 | 0.00 | 0.00 | 81 | 1009.5 |
| 20260505034204 | 73 | 299 | 0.9 | 2.6 | 0.00 | 0.00 | 0.00 | 81 | 1009.4 |
| 20260505033705 | 73 | 275 | 0.9 | 0.9 | 0.00 | 0.00 | 0.00 | 80 | 1009.5 |
| 20260505033204 | 73 | 293 | 0.9 | 1.7 | 0.00 | 0.00 | 0.00 | 80 | 1009.6 |
| 20260505032705 | 73 | 263 | 0.9 | 1.7 | 0.00 | 0.00 | 0.00 | 79 | 1009.4 |
| 20260505032205 | 74 | 243 | 0.9 | 2.6 | 0.00 | 0.00 | 0.00 | 79 | 1009.4 |
| 20260505031705 | 74 | 286 | 0.9 | 1.7 | 0.00 | 0.00 | 0.00 | 78 | 1009.4 |
| 20260505031204 | 74 | 354 | 0.9 | 1.7 | 0.00 | 0.00 | 0.00 | 78 | 1009.4 |
| 20260505030704 | 74 | 280 | 0.9 | 1.7 | 0.00 | 0.00 | 0.00 | 78 | 1009.5 |
| 20260505025704 | 74 | 249 | 0.9 | 4.3 | 0.00 | 0.00 | 0.00 | 78 | 1009.4 |
| 20260505025204 | 74 | 256 | 0.9 | 1.7 | 0.00 | 0.00 | 0.00 | 77 | 1009.5 |
| 20260505024704 | 74 | 284 | 0.9 | 2.6 | 0.00 | 0.00 | 0.00 | 77 | 1009.4 |
| 20260505024205 | 74 | 224 | 0.9 | 2.6 | 0.00 | 0.00 | 0.00 | 77 | 1009.3 |
| 20260505023704 | 74 | 288 | 0.0 | 1.7 | 0.00 | 0.00 | 0.00 | 77 | 1009.4 |
| 20260505023204 | 74 | 327 | 0.9 | 2.6 | 0.00 | 0.00 | 0.00 | 77 | 1009.3 |
| 20260505022204 | 74 | 278 | 0.9 | 2.6 | 0.00 | 0.00 | 0.00 | 77 | 1009.3 |
| 20260505021704 | 74 | 270 | 0.9 | 2.6 | 0.00 | 0.00 | 0.00 | 77 | 1009.3 |
| 20260505021205 | 74 | 241 | 0.9 | 1.7 | 0.00 | 0.00 | 0.00 | 77 | 1009.2 |
| 20260505020705 | 74 | 299 | 0.9 | 2.6 | 0.00 | 0.00 | 0.00 | 77 | 1009.2 |
| 20260505020204 | 74 | 308 | 0.9 | 1.7 | 0.00 | 0.00 | 0.00 | 77 | 1009.2 |
| 20260505015704 | 74 | 166 | 0.9 | 2.6 | 0.00 | 0.00 | 0.00 | 77 | 1009.1 |
| 20260505015204 | 74 | 290 | 0.0 | 0.9 | 0.00 | 0.00 | 0.00 | 76 | 1009.1 |
| 20260505014704 | 74 | 303 | 0.9 | 2.6 | 0.00 | 0.00 | 0.00 | 76 | 1009.1 |
| 20260505014204 | 74 | 288 | 0.9 | 1.7 | 0.00 | 0.00 | 0.00 | 76 | 1009.0 |
| 20260505013704 | 74 | 306 | 0.9 | 2.6 | 0.00 | 0.00 | 0.00 | 76 | 1009.1 |
| 20260505013204 | 75 | 267 | 0.9 | 5.2 | 0.00 | 0.00 | 0.00 | 76 | 1009.0 |
| 20260505012704 | 75 | 265 | 0.9 | 2.6 | 0.00 | 0.00 | 0.00 | 75 | 1008.8 |
| 20260505012204 | 75 | 94 | 0.9 | 1.7 | 0.00 | 0.00 | 0.00 | 74 | 1008.9 |
| 20260505011704 | 75 | 232 | 0.9 | 2.6 | 0.00 | 0.00 | 0.00 | 74 | 1009.0 |
| 20260505010204 | 75 | 287 | 0.9 | 2.6 | 0.00 | 0.00 | 0.00 | 73 | 1008.9 |
| 20260505005204 | 76 | 318 | 0.9 | 5.2 | 0.00 | 0.00 | 0.00 | 73 | 1008.8 |